TimeEDT,TemperatureF,Dew PointF,Humidity,Sea Level PressureIn,VisibilityMPH,Wind Direction,Wind SpeedMPH,Gust SpeedMPH,PrecipitationIn,Events,Conditions,WindDirDegrees,DateUTC
12:51 AM,61.0,57.9,90,29.01,-9999.0,South,9.2,-,0.01,,Unknown,180,2013-11-01 04:51:00
1:51 AM,62.1,57.0,84,28.98,-9999.0,SSW,10.4,19.6,N/A,,Unknown,210,2013-11-01 05:51:00
2:51 AM,61.0,55.9,83,28.94,-9999.0,SW,15.0,24.2,N/A,,Unknown,230,2013-11-01 06:51:00
3:51 AM,57.0,53.1,87,28.99,-9999.0,WSW,13.8,24.2,N/A,,Unknown,240,2013-11-01 07:51:00
4:51 AM,54.0,51.1,90,29.03,-9999.0,WSW,21.9,38.0,0.11,,Unknown,250,2013-11-01 08:51:00
5:51 AM,52.0,46.9,83,29.08,-9999.0,West,23.0,40.3,0.05,,Unknown,260,2013-11-01 09:51:00
6:51 AM,50.0,45.0,83,29.12,-9999.0,WSW,15.0,28.8,N/A,,Unknown,250,2013-11-01 10:51:00
7:51 AM,50.0,44.1,80,29.17,-9999.0,WSW,17.3,35.7,N/A,,Unknown,250,2013-11-01 11:51:00
8:51 AM,48.9,43.0,80,29.24,-9999.0,WSW,19.6,31.1,N/A,,Unknown,250,2013-11-01 12:51:00
9:51 AM,50.0,43.0,77,29.29,-9999.0,WSW,15.0,28.8,N/A,,Unknown,240,2013-11-01 13:51:00
10:51 AM,50.0,43.0,77,29.34,-9999.0,WSW,15.0,34.5,N/A,,Unknown,250,2013-11-01 14:51:00
11:51 AM,51.1,44.1,77,29.37,-9999.0,WSW,13.8,29.9,N/A,,Unknown,250,2013-11-01 15:51:00
12:51 PM,50.0,43.0,77,29.42,-9999.0,WSW,10.4,31.1,N/A,,Unknown,250,2013-11-01 16:51:00
1:51 PM,51.1,43.0,74,29.44,-9999.0,WSW,16.1,27.6,N/A,,Unknown,250,2013-11-01 17:51:00
2:51 PM,51.1,43.0,74,29.47,-9999.0,WSW,15.0,24.2,N/A,,Unknown,250,2013-11-01 18:51:00
3:51 PM,50.0,42.1,74,29.50,-9999.0,WSW,10.4,20.7,N/A,,Unknown,240,2013-11-01 19:51:00
4:51 PM,48.9,43.0,80,29.53,-9999.0,WSW,10.4,21.9,N/A,,Unknown,240,2013-11-01 20:51:00
5:51 PM,48.0,43.0,83,29.55,-9999.0,WSW,10.4,-,N/A,,Unknown,240,2013-11-01 21:51:00
6:51 PM,46.9,44.1,90,29.56,-9999.0,WSW,6.9,-,N/A,,Unknown,250,2013-11-01 22:51:00
7:51 PM,46.9,44.1,90,29.59,-9999.0,Variable,4.6,-,0.01,,Unknown,0,2013-11-01 23:51:00
8:51 PM,46.9,44.1,90,29.59,-9999.0,Variable,5.8,-,N/A,,Unknown,0,2013-11-02 00:51:00
9:51 PM,46.9,44.1,90,29.60,-9999.0,WSW,4.6,-,N/A,,Unknown,240,2013-11-02 01:51:00
10:51 PM,46.9,45.0,93,29.61,-9999.0,West,3.5,-,0.02,,Unknown,260,2013-11-02 02:51:00
11:51 PM,46.9,45.0,93,29.61,-9999.0,Calm,Calm,-,0.05,,Unknown,0,2013-11-02 03:51:00